Weather History for McAllen, TX

Change the Weather History Date:

Monday, October 7, 2013

  Actual Average Record
Temperature  
Mean Temperature 72 °F 79 °F  
Max Temperature 88 °F 89 °F 98 °F (1962)
Min Temperature 55 °F 69 °F 53 °F (2000)
Degree Days  
Heating Degree Days 0 0  
Month to date heating degree days 0 0  
Since 1 July heating degree days 0 0  
Cooling Degree Days 7 14  
Month to date cooling degree days 111 102  
Year to date cooling degree days 4043 3901  
Growing Degree Days 21 (Base 50)    
Moisture  
Dew Point 47 °F    
Average Humidity 52    
Maximum Humidity 86    
Minimum Humidity 17    
Precipitation  
Precipitation 0.00 in 0.07 in 0.79 in (2000)
Month to date precipitation T 0.56  
Year to date precipitation 12.16 18.60  
Sea Level Pressure  
Sea Level Pressure 30.11 in    
Wind  
Wind Speed 4 mph (NW)    
Max Wind Speed 14 mph    
Max Gust Speed 18 mph    
Visibility 10 miles    
Events      
T = Trace of Precipitation, MM = Missing Value Source: NWS Daily Summary

Daily Weather History Graph

Daily Weather History Graph

Search for Another Location

Airport:

Trip Planner

Search our weather history database for the weather conditions in past years. The results will help you decide how hot, cold, wet, or windy it might be!

Date:

Astronomy

Oct. 07, 2013 Rise Set
Actual Time 7:28 AM CDT 7:12 PM CDT
Civil Twilight 7:05 AM CDT 7:35 PM CDT
Nautical Twilight 6:38 AM CDT 8:02 PM CDT
Astronomical Twilight 6:11 AM CDT 8:29 PM CDT
Moon 10:02 AM CDT (10/7) 9:17 PM CDT (10/7)
Length of Visible Light 12h 30m
Length of Day
11h 44m
Waxing Crescent, 9% of the Moon is Illuminated
Oct 7
Waxing Crescent
Oct 11
First Quarter
Oct 18
Full
Oct 26
Last Quarter
Nov 3
New

Hourly Weather History & Observations

Time (CDT) Temp. Dew Point Humidity Pressure Visibility Wind Dir Wind Speed Gust Speed Precip Events Conditions
12:53 AM 66.0 °F 51.1 °F 59% 30.13 in 10.0 mi WNW 5.8 mph - N/A   Clear
1:53 AM 64.9 °F 48.9 °F 56% 30.12 in 10.0 mi WNW 5.8 mph - N/A   Clear
2:53 AM 64.9 °F 48.0 °F 54% 30.12 in 10.0 mi NW 8.1 mph - N/A   Clear
3:53 AM 62.1 °F 50.0 °F 65% 30.10 in 10.0 mi WNW 3.5 mph - N/A   Clear
4:53 AM 57.9 °F 51.1 °F 78% 30.11 in 10.0 mi WNW 4.6 mph - N/A   Clear
5:53 AM 57.0 °F 51.1 °F 81% 30.11 in 10.0 mi West 3.5 mph - N/A   Clear
6:53 AM 55.9 °F 51.1 °F 84% 30.12 in 10.0 mi West 3.5 mph - N/A   Clear
7:53 AM 55.9 °F 51.1 °F 84% 30.15 in 10.0 mi West 3.5 mph - N/A   Clear
8:53 AM 61.0 °F 52.0 °F 72% 30.16 in 10.0 mi WNW 4.6 mph - N/A   Clear
9:53 AM 69.1 °F 52.0 °F 54% 30.17 in 10.0 mi West 5.8 mph - N/A   Clear
10:53 AM 77.0 °F 51.1 °F 40% 30.17 in 10.0 mi Variable 4.6 mph - N/A   Clear
11:53 AM 82.0 °F 43.0 °F 25% 30.16 in 10.0 mi NW 4.6 mph - N/A   Clear
12:53 PM 84.0 °F 39.0 °F 20% 30.14 in 10.0 mi Variable 3.5 mph - N/A   Clear
1:53 PM 84.9 °F 39.0 °F 20% 30.11 in 10.0 mi North 8.1 mph - N/A   Clear
2:53 PM 86.0 °F 41.0 °F 20% 30.08 in 10.0 mi NE 8.1 mph - N/A   Clear
3:53 PM 87.1 °F 39.0 °F 18% 30.06 in 10.0 mi NNW 4.6 mph - N/A   Clear
4:53 PM 87.1 °F 37.9 °F 18% 30.05 in 10.0 mi North 9.2 mph - N/A   Clear
5:53 PM 86.0 °F 37.0 °F 18% 30.04 in 10.0 mi North 4.6 mph - N/A   Clear
6:53 PM 82.9 °F 37.9 °F 20% 30.05 in 10.0 mi Calm Calm - N/A   Clear
7:53 PM 77.0 °F 45.0 °F 32% 30.06 in 10.0 mi East 4.6 mph - N/A   Clear
8:53 PM 75.0 °F 46.9 °F 37% 30.08 in 10.0 mi East 6.9 mph - N/A   Clear
9:53 PM 68.0 °F 51.1 °F 55% 30.10 in 10.0 mi Calm Calm - N/A   Clear
10:53 PM 64.9 °F 50.0 °F 58% 30.10 in 10.0 mi Calm Calm - N/A   Clear
11:53 PM 64.0 °F 52.0 °F 65% 30.09 in 10.0 mi Calm Calm - N/A   Clear